• In Czech Republic
  • List of Countries
  • For 7 days
  • Water Temperature
  • Satellite Maps
  • Weather Map
  • Weather Widgets
  • user-avatar
    Login

    Hourly Weather Garissa

    Today, 18 June, Monday

    Time Temperature Precipitation Wind Pressure Humidity
    00:00 +27°C° 0 mm 7 mps 748 mmHg 65%
    01:00 +27°C° 0 mm 6 mps 748 mmHg 67%
    02:00 +27°C° 0 mm 6 mps 748 mmHg 69%
    03:00 +26°C° 0 mm 6 mps 747 mmHg 72%
    04:00 +26°C° 0 mm 6 mps 747 mmHg 74%
    05:00 +26°C° 0 mm 6 mps 747 mmHg 75%
    06:00 +26°C° 0 mm 5 mps 748 mmHg 77%
    07:00 +27°C° 0 mm 6 mps 748 mmHg 71%
    08:00 +28°C° 0 mm 7 mps 748 mmHg 66%
    09:00 +29°C° 0 mm 7 mps 748 mmHg 57%
    10:00 +30°C° 0 mm 7 mps 748 mmHg 51%
    11:00 +33°C° 0 mm 8 mps 748 mmHg 45%
    12:00 +34°C° 0 mm 8 mps 747 mmHg 39%
    13:00 +34°C° 0 mm 8 mps 747 mmHg 39%
    14:00 +35°C° 0 mm 8 mps 746 mmHg 38%
    15:00 +35°C° 0 mm 7 mps 745 mmHg 38%
    16:00 +34°C° 0 mm 7 mps 745 mmHg 40%
    17:00 +34°C° 0 mm 7 mps 745 mmHg 41%
    18:00 +33°C° 0 mm 7 mps 745 mmHg 43%
    19:00 +32°C° 0 mm 7 mps 746 mmHg 46%
    20:00 +32°C° 0 mm 7 mps 746 mmHg 48%
    21:00 +30°C° 0 mm 7 mps 746 mmHg 51%
    22:00 +29°C° 0 mm 7 mps 747 mmHg 55%
    23:00 +28°C° 0 mm 7 mps 747 mmHg 59%

    Tomorrow, 19 June, Tuesday

    Time Temperature Precipitation Wind Pressure Humidity
    00:00 +27°C° 0 mm 6 mps 747 mmHg 62%
    01:00 +27°C° 0 mm 6 mps 747 mmHg 65%
    02:00 +27°C° 0 mm 6 mps 747 mmHg 67%
    03:00 +26°C° 0 mm 6 mps 747 mmHg 69%
    04:00 +26°C° 0 mm 5 mps 747 mmHg 71%
    05:00 +26°C° 0 mm 5 mps 747 mmHg 73%
    06:00 +25°C° 0 mm 5 mps 747 mmHg 74%
    07:00 +26°C° 0 mm 5 mps 748 mmHg 69%
    08:00 +28°C° 0 mm 6 mps 748 mmHg 64%
    09:00 +29°C° 0 mm 7 mps 748 mmHg 59%
    10:00 +30°C° 0 mm 7 mps 748 mmHg 53%
    11:00 +33°C° 0 mm 7 mps 748 mmHg 46%
    12:00 +34°C° 0 mm 7 mps 748 mmHg 40%
    13:00 +34°C° 0 mm 8 mps 747 mmHg 39%
    14:00 +35°C° 0 mm 8 mps 746 mmHg 38%
    15:00 +35°C° 0 mm 8 mps 746 mmHg 38%
    16:00 +34°C° 0 mm 8 mps 746 mmHg 40%
    17:00 +34°C° 0 mm 8 mps 745 mmHg 42%
    18:00 +33°C° 0 mm 8 mps 745 mmHg 45%
    19:00 +32°C° 0 mm 8 mps 746 mmHg 47%
    20:00 +31°C° 0 mm 8 mps 747 mmHg 50%
    21:00 +29°C° 0 mm 8 mps 747 mmHg 52%
    22:00 +29°C° 0 mm 7 mps 748 mmHg 55%
    23:00 +28°C° 0 mm 7 mps 748 mmHg 57%

    Day after tomorrow, 20 June, Wednesday

    Time Temperature Precipitation Wind Pressure Humidity
    00:00 +27°C° 0 mm 7 mps 748 mmHg 60%
    01:00 +27°C° 0 mm 6 mps 748 mmHg 62%
    02:00 +27°C° 0 mm 6 mps 748 mmHg 65%
    03:00 +26°C° 0 mm 5 mps 747 mmHg 67%
    04:00 +26°C° 0 mm 5 mps 747 mmHg 69%
    05:00 +26°C° 0 mm 4 mps 747 mmHg 71%
    06:00 +25°C° 0 mm 4 mps 748 mmHg 72%
    07:00 +26°C° 0 mm 5 mps 748 mmHg 68%
    08:00 +27°C° 0 mm 6 mps 749 mmHg 64%
    09:00 +29°C° 0 mm 6 mps 749 mmHg 59%
    10:00 +30°C° 0 mm 7 mps 749 mmHg 53%
    11:00 +33°C° 0 mm 7 mps 749 mmHg 47%
    12:00 +34°C° 0 mm 7 mps 749 mmHg 40%
    13:00 +35°C° 0 mm 7 mps 748 mmHg 38%
    14:00 +36°C° 0 mm 7 mps 747 mmHg 36%
    15:00 +38°C° 0 mm 7 mps 746 mmHg 33%
    16:00 +36°C° 0 mm 7 mps 746 mmHg 37%
    17:00 +35°C° 0 mm 7 mps 746 mmHg 40%
    18:00 +34°C° 0 mm 8 mps 746 mmHg 44%
    19:00 +33°C° 0 mm 8 mps 746 mmHg 47%
    20:00 +32°C° 0 mm 8 mps 747 mmHg 51%
    21:00 +31°C° 0 mm 8 mps 748 mmHg 55%
    22:00 +29°C° 0 mm 8 mps 748 mmHg 59%
    23:00 +28°C° 0 mm 7 mps 748 mmHg 64%

    21 June, Thursday

    Time Temperature Precipitation Wind Pressure Humidity
    00:00 +28°C° 0 mm 7 mps 749 mmHg 68%
    01:00 +27°C° 0 mm 7 mps 748 mmHg 70%
    02:00 +27°C° 0 mm 7 mps 748 mmHg 72%
    03:00 +27°C° 0 mm 6 mps 748 mmHg 74%
    04:00 +26°C° 0 mm 6 mps 748 mmHg 75%
    05:00 +26°C° 0 mm 5 mps 748 mmHg 75%
    06:00 +26°C° 0 mm 5 mps 748 mmHg 76%
    07:00 +27°C° 0 mm 5 mps 749 mmHg 71%
    08:00 +28°C° 0 mm 6 mps 749 mmHg 65%
    09:00 +29°C° 0 mm 7 mps 750 mmHg 60%
    10:00 +32°C° 0 mm 7 mps 749 mmHg 54%
    11:00 +33°C° 0 mm 7 mps 749 mmHg 47%
    12:00 +35°C° 0 mm 7 mps 749 mmHg 41%
    13:00 +36°C° 0 mm 7 mps 748 mmHg 39%
    14:00 +37°C° 0 mm 8 mps 747 mmHg 37%
    15:00 +38°C° 0 mm 8 mps 746 mmHg 36%
    16:00 +37°C° 0 mm 8 mps 746 mmHg 39%
    17:00 +35°C° 0 mm 8 mps 746 mmHg 42%
    18:00 +34°C° 0 mm 8 mps 746 mmHg 46%
    19:00 +33°C° 0 mm 8 mps 746 mmHg 49%
    20:00 +32°C° 0 mm 8 mps 747 mmHg 52%
    21:00 +31°C° 0 mm 8 mps 748 mmHg 56%
    22:00 +29°C° 0 mm 8 mps 748 mmHg 59%
    23:00 +29°C° 0 mm 8 mps 748 mmHg 62%

    22 June, Friday

    Time Temperature Precipitation Wind Pressure Humidity
    00:00 +28°C° 0 mm 8 mps 749 mmHg 65%
    01:00 +28°C° 0 mm 7 mps 748 mmHg 67%
    02:00 +27°C° 0 mm 7 mps 748 mmHg 68%
    03:00 +27°C° 0 mm 7 mps 747 mmHg 70%
    04:00 +27°C° 0 mm 6 mps 748 mmHg 71%
    05:00 +27°C° 0 mm 6 mps 748 mmHg 72%
    06:00 +26°C° 0 mm 5 mps 748 mmHg 73%
    07:00 +27°C° 0 mm 6 mps 749 mmHg 68%
    08:00 +28°C° 0 mm 7 mps 749 mmHg 63%
    09:00 +30°C° 0 mm 7 mps 750 mmHg 58%
    10:00 +32°C° 0 mm 8 mps 749 mmHg 52%
    11:00 +34°C° 0 mm 8 mps 749 mmHg 47%
    12:00 +35°C° 0 mm 8 mps 748 mmHg 41%
    13:00 +35°C° 0 mm 8 mps 747 mmHg 40%
    14:00 +37°C° 0 mm 8 mps 746 mmHg 39%
    15:00 +37°C° 0 mm 8 mps 745 mmHg 38%
    16:00 +35°C° 0 mm 8 mps 746 mmHg 40%
    17:00 +35°C° 0 mm 8 mps 746 mmHg 43%
    18:00 +34°C° 0 mm 9 mps 746 mmHg 45%
    19:00 +33°C° 0 mm 9 mps 746 mmHg 49%
    20:00 +32°C° 0 mm 9 mps 747 mmHg 52%
    21:00 +31°C° 0 mm 9 mps 748 mmHg 56%
    22:00 +29°C° 0 mm 8 mps 748 mmHg 58%
    23:00 +29°C° 0 mm 8 mps 748 mmHg 60%

    23 June, Saturday

    Time Temperature Precipitation Wind Pressure Humidity
    00:00 +28°C° 0 mm 8 mps 747 mmHg 61%
    01:00 +28°C° 0 mm 8 mps 747 mmHg 63%
    02:00 +27°C° 0 mm 8 mps 747 mmHg 65%
    03:00 +27°C° 0 mm 7 mps 746 mmHg 67%
    04:00 +27°C° 0 mm 7 mps 747 mmHg 69%
    05:00 +26°C° 0 mm 6 mps 747 mmHg 70%
    06:00 +26°C° 0 mm 6 mps 747 mmHg 72%
    07:00 +27°C° 0 mm 6 mps 748 mmHg 68%
    08:00 +28°C° 0 mm 7 mps 748 mmHg 63%
    09:00 +29°C° 0 mm 8 mps 749 mmHg 59%
    10:00 +32°C° 0 mm 8 mps 748 mmHg 53%
    11:00 +33°C° 0 mm 9 mps 748 mmHg 46%
    12:00 +35°C° 0 mm 9 mps 747 mmHg 40%
    13:00 +35°C° 0 mm 9 mps 746 mmHg 40%
    14:00 +37°C° 0 mm 9 mps 746 mmHg 39%
    15:00 +37°C° 0 mm 9 mps 745 mmHg 38%
    16:00 +35°C° 0 mm 9 mps 745 mmHg 40%
    17:00 +34°C° 0 mm 9 mps 745 mmHg 43%
    18:00 +34°C° 0 mm 9 mps 745 mmHg 45%
    19:00 +33°C° 0 mm 8 mps 746 mmHg 48%
    20:00 +32°C° 0 mm 8 mps 746 mmHg 51%
    21:00 +31°C° 0 mm 8 mps 747 mmHg 55%
    22:00 +29°C° 0 mm 8 mps 747 mmHg 58%
    23:00 +28°C° 0 mm 8 mps 747 mmHg 62%
    Show more